Location: Little Chesterford
(52.0500°N, 0.1833°E)
Time: 03:59:51
(UTC+00:00)

Resurs 01 Rocket - Pass Details

Date: 26 September 2023
Orbit: 631 x 642 km, 97.8° (Epoch: 29 November)

Event Time Altitude Azimuth Distance (km) Brightness Sun altitude
Exits shadow 20:43:53 29° 225° (SW) 1,179 3.0 -26.2°
Maximum altitude 20:45:17 37° 263° (W) 1,013 2.9 -26.3°
Drops below altitude 10° 20:49:26 10° 331° (NNW) 2,051 5.0 -26.9°
Sets 20:51:49 0° 340° (NNW) 2,967 5.9 -27.2°
